Regional Weather Roundup
Issued by NWS Sioux Falls, SD

Home | Current Version | Previous Version | Text Only | Print | Product List | Glossary Off
Versions: 1 2 3 4 5 6 7 8 9 10 11 12 13 14 15 16 17 18 19 20 21 22 23 24 25 26 27 28 29 30 31 32 33 34 35 36 37 38 39 40 41 42 43 44 45 46 47 48 49 50

000
ASUS43 KFSD 261210
RWRFSD

WEATHER ROUNDUP FOR SE SOUTH DAKOTA/SW MINNESOTA/NW IOWA
NATIONAL WEATHER SERVICE SIOUX FALLS SD
600 AM CST SUN FEB 26 2017

NOTE: "FAIR" INDICATES FEW OR NO CLOUDS BELOW 12,000 FEET WITH NO
SIGNIFICANT WEATHER AND OR OBSTRUCTIONS TO VISIBILITY.


SDZ038>040-050-052>070-261300-
SOUTHEAST SOUTH DAKOTA

CITY           SKY/WX    TMP DP  RH WIND       PRES   REMARKS
BROOKINGS      MOCLDY    23  21  92 SW7       29.72R WCI  15
CHAMBERLAIN    CLEAR     22  18  85 W8        29.78R WCI  12
6HR MIN TEMP:  22; 6HR MAX TEMP:  29;

HURON          CLEAR     21  19  92 W8        29.76R WCI  11
6HR MIN TEMP:  21; 6HR MAX TEMP:  25;

MADISON        CLOUDY    23  23 100 W13       29.73S WCI  11
MITCHELL       CLEAR     23  18  81 W12       29.78R WCI  12
6HR MIN TEMP:  23; 6HR MAX TEMP:  27;

SIOUX FALLS    PTCLDY    17  14  88 SW3       29.76S
6HR MIN TEMP:  15; 6HR MAX TEMP:  23;

WINNER         FAIR      21  14  74 SW7       29.78R WCI  12
YANKTON        CLEAR     19  12  73 SW9       29.80R WCI   9
$$

MNZ071-072-080-081-089-090-097-098-261300-
SOUTHWEST MINNESOTA

CITY           SKY/WX    TMP DP  RH WIND       PRES   REMARKS
FAIRMONT       CLEAR     20  16  84 W16       29.76S WCI   6
JACKSON        CLEAR     19  14  79 W5        29.75S WCI  13
LUVERNE        MOCLDY    19  16  86 SW7       29.77R WCI  10
MARSHALL       PTCLDY    24  21  88 W12       29.73R WCI  13
6HR MIN TEMP:  22; 6HR MAX TEMP:  27;

MONTEVIDEO     CLOUDY    27  23  86 CALM      29.72F
PIPESTONE      MOCLDY    23  18  80 SW8       29.73R WCI  14
REDWOOD FALLS  CLOUDY    24  18  77 SW6       29.73R WCI  17
TRACY          CLEAR     24  21  89 SW12      29.72S WCI  13
WINDOM         CLEAR     19  18  93 SW6       29.73F WCI  11
WORTHINGTON    CLEAR     20  16  84 SW13      29.74S WCI   7
$$

IAZ001>003-012>014-020>022-031-032-NEZ013-014-SDZ071-261300-
NORTHWEST IOWA

CITY           SKY/WX    TMP DP  RH WIND       PRES   REMARKS
CHEROKEE       CLEAR     19  18  93 CALM      29.81R
DENISON        CLEAR     21  19  93 SW6       29.82R WCI  14
ESTHERVILLE    CLEAR     19  16  88 W12       29.75S WCI   7
LE MARS        CLEAR     18  16  93 S5        29.82R WCI  11
SHELDON        CLEAR     18  19 100 SW9       29.77R WCI   6
SIOUX CITY     CLEAR     15  11  83 N3        29.83R
6HR MIN TEMP:  15; 6HR MAX TEMP:  22;

SPENCER        CLEAR     14  11  87 SW7       29.78R WCI   4
6HR MIN TEMP:  13; 6HR MAX TEMP:  20;

STORM LAKE     CLEAR     21  18  86 W13       29.79R WCI   9
$$

ABBREVIATIONS USED IN REMARKS
   TC - TEMPERATURE IN CELSIUS
  WCI - WIND CHILL INDEX
   HX - HEAT INDEX
  VSB - VISIBILITY





USA.gov is the U.S. government's official web portal to all federal, state and local government web resources and services.